Le nostre stazioni meteo in Italia

Pubblicità
Il mio iltempo24.it
Dunstaffnage, Gran Bretagna (99006): Temperatura & dewpoint: 14.02.2017 15:00:00 - 20.02.2017 15:00:00 (GMT)Dunstaffnage, Gran Bretagna (99006): Temperatura -20cm: 14.02.2017 15:00:00 - 20.02.2017 15:00:00 (GMT)Dunstaffnage, Gran Bretagna (99006): velocità del vento & gusts: 14.02.2017 15:00:00 - 20.02.2017 15:00:00 (GMT)Dunstaffnage, Gran Bretagna (99006): direzione del vento: 14.02.2017 15:00:00 - 20.02.2017 15:00:00 (GMT)Dunstaffnage, Gran Bretagna (99006): precipitazioni: 14.02.2017 15:00:00 - 20.02.2017 15:00:00 (GMT)
Data & Tempo tt [°C] td [°C] tt -20cm [°C] ff [km/h] ff [kn] fx [km/h] fx [kn] dd rr [mm]
20.02.2017 15:00:00 10,6 6,4 - 31 17 - - O 0,0
20.02.2017 14:00:00 9,8 7,4 - 21 11 - - OSO 0,2
20.02.2017 13:00:00 9,3 7,4 - 29 16 - - O 0,0
20.02.2017 12:00:00 9,2 7,7 - 31 17 50 27 O 0,0
20.02.2017 11:00:00 9,9 8,6 - 28 15 52 28 OSO 0,0
20.02.2017 10:00:00 10,1 9,3 - 29 16 52 28 O 0,0
20.02.2017 09:00:00 10,6 10,0 7,4 21 11 - - SO 0,4
20.02.2017 08:00:00 9,9 9,4 - 21 11 - - SSO 2,0
20.02.2017 07:00:00 10,1 9,8 - 21 11 - - SO 0,2
20.02.2017 06:00:00 9,9 9,8 - 24 13 - - SO 0,2
20.02.2017 05:00:00 9,6 9,5 - 31 17 50 27 SO 0,2
20.02.2017 04:00:00 9,3 9,1 - 22 12 - - SSO 0,2
20.02.2017 03:00:00 9,2 8,8 - 15 8 - - SSO 0,0
20.02.2017 02:00:00 9,8 8,8 - 18 10 - - SO 0,0
20.02.2017 01:00:00 9,8 9,0 - 21 11 - - SO 0,2
20.02.2017 00:00:00 9,9 9,3 - 16 9 - - SO 0,0
19.02.2017 23:00:00 10,1 9,7 - 18 10 - - SO 0,4
19.02.2017 22:00:00 10,0 9,7 - 15 8 - - SO 1,0
19.02.2017 21:00:00 9,7 9,5 - 16 9 - - SO 1,2
19.02.2017 20:00:00 9,7 9,5 - 21 11 - - SO 1,4
19.02.2017 19:00:00 9,5 9,3 - 16 9 - - SO 1,0
19.02.2017 18:00:00 9,4 9,2 - 18 10 - - SO 0,0
19.02.2017 17:00:00 9,4 9,2 - 15 8 - - SSO 0,2
19.02.2017 16:00:00 9,3 9,1 - 15 8 - - SSO 0,0
19.02.2017 15:00:00 9,2 9,0 - 16 9 - - SSO 0,0
19.02.2017 14:00:00 9,1 8,9 - 15 8 - - SSO 0,0
19.02.2017 13:00:00 9,3 9,1 - 16 9 - - SSO 0,0
19.02.2017 12:00:00 9,0 8,7 - 15 8 - - SO 0,0
19.02.2017 11:00:00 8,9 8,7 - 15 8 - - SSO 0,0
19.02.2017 10:00:00 8,5 8,4 - 16 9 - - SSO 0,2
19.02.2017 09:00:00 8,6 8,4 6,9 11 6 - - SO 0,0
19.02.2017 08:00:00 8,5 8,3 - 9 5 - - SO 0,0
19.02.2017 07:00:00 8,1 7,8 - 4 2 - - SO 0,0
19.02.2017 06:00:00 8,0 7,6 - 13 7 - - OSO 0,0
19.02.2017 05:00:00 8,1 7,6 - 16 9 - - O 0,0
19.02.2017 04:00:00 8,4 7,7 - 15 8 - - O 0,0
19.02.2017 03:00:00 8,4 7,9 - 11 6 - - OSO 0,4
19.02.2017 02:00:00 8,5 8,0 - 22 12 - - O 0,4
19.02.2017 01:00:00 8,7 8,0 - 24 13 - - OSO 0,4
19.02.2017 00:00:00 8,6 7,9 - 21 11 - - SO 0,6
18.02.2017 23:00:00 8,4 7,6 - 22 12 - - SO 0,6
18.02.2017 22:00:00 8,1 7,1 - 16 9 - - SO 0,6
18.02.2017 21:00:00 8,0 7,2 - 18 10 - - SO 0,0
18.02.2017 20:00:00 8,0 7,2 - 18 10 - - SO 0,2
18.02.2017 19:00:00 8,3 7,3 - 16 9 - - SO 0,0
18.02.2017 18:00:00 8,6 7,6 - 24 13 - - SO 0,0
18.02.2017 17:00:00 8,8 7,8 - 24 13 - - SO 0,0
18.02.2017 16:00:00 8,9 8,2 - 21 11 - - SO 0,4
18.02.2017 15:00:00 8,9 8,2 - 22 12 - - SO 0,2
18.02.2017 14:00:00 9,4 8,2 - 18 10 - - SO 0,2
18.02.2017 13:00:00 9,6 8,8 - 15 8 - - SO 0,0
18.02.2017 12:00:00 9,2 9,0 - 15 8 - - SO 0,0
18.02.2017 11:00:00 9,2 8,9 - 13 7 - - SO 0,0
18.02.2017 10:00:00 8,9 8,6 - 13 7 - - SSO 0,0
18.02.2017 09:00:00 9,1 8,7 6,5 24 13 - - SO 0,2
18.02.2017 08:00:00 9,6 9,2 - 18 10 - - SO 0,2
18.02.2017 07:00:00 9,9 9,2 - 16 9 - - SSO 0,6
18.02.2017 06:00:00 9,9 9,0 - 21 11 - - S 1,6
18.02.2017 05:00:00 10,2 8,9 - 18 10 - - SSE 0,2
18.02.2017 04:00:00 9,9 8,7 - 18 10 - - SSE 1,6
18.02.2017 03:00:00 9,7 8,6 - 16 9 - - S 0,0
18.02.2017 02:00:00 9,9 8,5 - 5 3 - - SE 0,0
18.02.2017 01:00:00 9,5 8,4 - 9 5 - - SSE 0,6
18.02.2017 00:00:00 9,5 8,2 - 11 6 - - ESE 0,2
17.02.2017 23:00:00 9,4 8,1 - 9 5 - - ESE 0,0
17.02.2017 22:00:00 9,5 8,1 - 5 3 - - SE 0,4
17.02.2017 21:00:00 9,6 8,0 - 9 5 - - ESE 1,0
17.02.2017 20:00:00 9,3 8,0 - 11 6 - - ESE 0,2
17.02.2017 19:00:00 9,6 7,4 - 13 7 - - E 0,0
17.02.2017 18:00:00 9,5 6,9 - 13 7 - - E 0,0
17.02.2017 17:00:00 9,8 6,6 - 5 3 - - E 0,0
17.02.2017 16:00:00 10,1 6,6 - 8 4 - - E 0,0
17.02.2017 15:00:00 10,1 6,9 - 13 7 - - E 0,0
17.02.2017 14:00:00 10,0 7,2 - 21 11 - - E 0,0
17.02.2017 13:00:00 10,3 7,2 - 15 8 - - E 0,0
17.02.2017 12:00:00 9,4 7,0 - 11 6 - - ESE 0,0
17.02.2017 11:00:00 8,1 6,3 - 13 7 - - E 0,0
17.02.2017 10:00:00 7,9 6,2 - 11 6 - - E 0,0
17.02.2017 09:00:00 7,2 5,8 5,7 0 0 - - N 0,0
17.02.2017 08:00:00 6,9 5,5 - 8 4 - - E 0,0
17.02.2017 07:00:00 6,3 5,4 - 4 2 - - ENE 0,0
17.02.2017 06:00:00 5,9 5,4 - 8 4 - - ENE 0,0
17.02.2017 05:00:00 4,7 4,2 - 4 2 - - ENE 0,0
17.02.2017 04:00:00 5,3 4,6 - 5 3 - - SSE 0,0
17.02.2017 03:00:00 6,5 6,1 - 5 3 - - E 0,0
17.02.2017 02:00:00 6,5 6,2 - 4 2 - - ESE 0,0
17.02.2017 01:00:00 6,8 6,5 - 8 4 - - ENE 0,0
17.02.2017 00:00:00 6,6 6,0 - 8 4 - - NE 0,0
16.02.2017 23:00:00 7,5 6,8 - 9 5 - - SSO 0,0
16.02.2017 22:00:00 7,9 7,0 - 11 6 - - SSO 0,0
16.02.2017 21:00:00 7,4 6,6 - 8 4 - - SO 0,0
16.02.2017 20:00:00 8,4 7,3 - 9 5 - - SSO 0,0
16.02.2017 19:00:00 8,6 7,3 - 9 5 - - OSO 0,0
16.02.2017 18:00:00 9,0 7,4 - 15 8 - - O 0,0
16.02.2017 17:00:00 9,2 7,6 - 15 8 - - OSO 0,0
16.02.2017 16:00:00 9,5 7,8 - 18 10 - - OSO 0,2
16.02.2017 15:00:00 9,5 8,1 - 24 13 - - O 0,2
16.02.2017 14:00:00 9,5 7,7 - 24 13 - - O 0,0
16.02.2017 13:00:00 8,9 7,9 - 22 12 - - OSO 2,2
16.02.2017 12:00:00 8,6 7,7 - 22 12 - - SO 1,4
16.02.2017 11:00:00 8,6 7,4 - 24 13 - - SO 0,0
16.02.2017 10:00:00 8,4 7,3 - 29 16 48 26 OSO 0,8
16.02.2017 09:00:00 7,9 7,2 5,4 26 14 - - SO 1,4
16.02.2017 08:00:00 8,1 5,8 - 22 12 - - SO 0,0
16.02.2017 07:00:00 8,3 5,9 - 21 11 46 25 SO 0,0
16.02.2017 06:00:00 8,3 6,5 - 31 17 48 26 SO 0,0
16.02.2017 05:00:00 8,4 7,4 - 29 16 55 30 SO 1,0
16.02.2017 04:00:00 8,6 7,6 - 29 16 54 29 SO 0,4
16.02.2017 03:00:00 8,6 8,1 - 26 14 50 27 SO 1,2
16.02.2017 02:00:00 8,7 8,1 - 26 14 - - SO 1,0
16.02.2017 01:00:00 8,6 8,0 - 26 14 48 26 SO 0,2
16.02.2017 00:00:00 8,8 8,1 - 22 12 - - SO 0,6
15.02.2017 23:00:00 8,7 7,9 - 13 7 - - S 2,6
15.02.2017 22:00:00 9,1 7,5 - 21 11 - - SSE 0,2
15.02.2017 21:00:00 9,1 7,5 - 21 11 - - SSE 1,0
15.02.2017 20:00:00 9,3 7,4 - 15 8 - - SSE 0,2
15.02.2017 19:00:00 8,6 7,1 - 8 4 - - SE 0,4
15.02.2017 18:00:00 9,0 6,6 - 11 6 - - SSE 0,0
15.02.2017 17:00:00 8,9 6,6 - 18 10 - - E 0,0
15.02.2017 16:00:00 9,1 6,4 - 16 9 - - E 0,0
15.02.2017 15:00:00 9,2 6,1 - 15 8 - - E 0,2
15.02.2017 14:00:00 9,3 5,3 - 26 14 - - E 0,0
15.02.2017 13:00:00 9,5 5,2 - 16 9 - - E 0,0
15.02.2017 12:00:00 9,9 5,1 - 13 7 - - ESE 0,0
15.02.2017 11:00:00 8,8 5,0 - 11 6 - - E 0,0
15.02.2017 10:00:00 8,4 4,9 - 15 8 - - E 0,0
15.02.2017 09:00:00 7,3 4,3 4,2 16 9 - - E 0,0
15.02.2017 08:00:00 6,8 4,5 - 15 8 - - E 0,0
15.02.2017 07:00:00 6,8 4,5 - 15 8 - - E 0,0
15.02.2017 06:00:00 7,0 4,7 - 15 8 - - E 0,0
15.02.2017 05:00:00 7,2 4,6 - 15 8 - - E 0,0
15.02.2017 04:00:00 6,9 4,3 - 11 6 - - E 0,0
15.02.2017 03:00:00 6,9 4,2 - 15 8 - - E 0,0
15.02.2017 02:00:00 6,5 4,1 - 13 7 - - E 0,0
15.02.2017 01:00:00 7,2 3,3 - 9 5 - - E 0,0
15.02.2017 00:00:00 7,3 3,0 - 16 9 - - E 0,0
14.02.2017 23:00:00 7,3 2,9 - 18 10 - - E 0,0
14.02.2017 22:00:00 7,8 2,6 - 15 8 - - ENE 0,0
14.02.2017 21:00:00 8,2 2,1 - 15 8 - - E 0,0
14.02.2017 20:00:00 7,5 1,9 - 11 6 - - E 0,0
14.02.2017 19:00:00 8,3 1,5 - 16 9 - - E 0,0
14.02.2017 18:00:00 7,6 1,4 - 5 3 - - ESE 0,0
14.02.2017 17:00:00 8,7 1,5 - 22 12 - - E 0,0
14.02.2017 16:00:00 9,4 1,0 - 24 13 48 26 E 0,0
14.02.2017 15:00:00 9,3 1,2 - 26 14 55 30 E 0,0

tt = Temperatura
td = dewpoint
tt -20cm = Temperatura -20cm
ff = velocità del vento
fx = gusts
dd = direzione del vento
rr = precipitazioni

Stazioni seguenti

WeatherPro
AMSI
MeteoEarth